Погода Нагорный

Погода Нагорный : погода сейчас, прогноз погоды и архив. Всё, что Вы хотите узнать о погоде Нагорный!

Хотите узнать прогноз погоды Нагорный? Тогда Вам сюда: Погода Нагорный

Поиск расширенной информации на нашем сайте:

Другие новости

Новости СМИ2

Главная страница сайта

Новости сайта

03.07.2017

Напоминаем, что на нашем специализированном сайте Метеоцентр.Азия вы можете получить высокодетализированные автоматические прогнозы погоды по пунктам России, СНГ и мира в авиационном формате (включающие направление и скорость ветра, видимость, явления погоды, количество и форму облачности, нижнюю и верхнюю границу облачности).

Рекомендуем: Где купить мебель ресторанов.

Погода Нагорный - сегодня

Время (UTC), дата Ветер
(°,м/с) 
Видим.   Явления Облачность Т
(°С)
Тd
(°С)
f(%) Тe
(°С)
Pmin
(гПа)
dP
(гПа)
Po
(мм)
O2
(г/м3)
Тmin Tmax R s Состояние
почвы
18 18.01.18 тихо ()   20000 м    ясно 
-38 -42.3 64 -38  1024.8  0.5  679  320           
21 18.01.18 250 (З) 20000 м    ясно 
-38.7 -42.7 66 -43  1026.1  0.8  680  321           
00 19.01.18 270 (З) 20000 м    ясно 
-40.2 -44.8 62 -41  1028.2  1.1  681  324  -41      равномерный
сухой снег
100% 
03 19.01.18 270 (З) 20000 м    ясно 
-38.5 -43.5 59 -43  1027.7  0.4  681  321           
06 19.01.18 тихо ()   20000 м    ясно 
-33.9 -39 60 -34  1026.1  0.7  681  315           
09 19.01.18 040 (СВ) 20000 м    3/0 средняя 
[Ac lent]
-30.8 -35.3 65 -37  1025.8  1.5  683  312           
12 19.01.18 060 (СВ) 20000 м    ясно 
-32.8 -38 60 -41  1028.3  683  315    -30.5       
15 19.01.18 060 (СВ) 20000 м    ясно 
-34.6 -39.6 60 -41  1030.4  1.1  684  318           
18 19.01.18 090 (В) 20000 м    ясно 
-36.7 -41.7 60 -45  1031.7  0.5  685  321           
21 19.01.18 090 (В) 20000 м    ясно 
-36.6 -42.4 55 -43  1032.5  0.4  685  321           
00 20.01.18 060 (СВ) 20000 м    ясно 
-37.1 -43.1 54 -44  1033.9  0.9  686  322  -38      равномерный
сухой снег
100% 
03 20.01.18 030 (СВ) 20000 м    ясно 
-36.1 -42 54 -44  1034.1  0.6  686  320           
06 20.01.18 060 (СВ) 20000 м    ясно 
-34.7 -41.7 49 -41  1033.5  0.2  686  319           
09 20.01.18 060 (СВ) 20000 м    ясно 
-36.2 -42 55 -43  1035.5  1.1  687  321           
12 20.01.18 060 (СВ) 20000 м    ясно 
-36.8 -42.7 54 -45  1036.3  0.5  687  322    -36.2       
15 20.01.18 080 (В) 20000 м    ясно 
-37.4 -43.1 55 -44  1037  0.2  687  323           
18 20.01.18 050 (СВ) 20000 м    ясно 
-37.5 -43.5 54 -46  1036.3  -0.7  687  323           
21 20.01.18 080 (В) 20000 м    ясно 
-38.6 -44.3 55 -47  1036.6  -0.2  687  324           
00 21.01.18 080 (В) 20000 м    3/0 средняя 
[Ac lent]
-39.1 -44.7 55 -46  1037.1  0.2  687  325  -40      равномерный
сухой снег
100% 
03 21.01.18 070 (В) 20000 м    3/0 средняя 
[Ac lent]
-36.9 -42.7 55 -43  1034.2  -1.5  686  321           
06 21.01.18 030 (СВ) 20000 м    ясно 
-34.7 -40.8 54 -44  1031.4  -1.5  685  318           
09 21.01.18 140 (ЮВ) 20000 м    3/0 средняя 
[Ac lent]
-35.3 -40.5 59 -43  1031.5  685  319           
12 21.01.18 100 (В) 20000 м    3/0 средняя 
[Ac lent]
-35.4 -39.6 65 -42  1030.6  -1  684  318    -34.3       
15 21.01.18 020 (С) 20000 м    ясно 
-34.6 -40.5 55 -42  1028.3  -1.6  683  317           
18 21.01.18 010 (С) 20000 м    ясно 
-34.8 -40.8 54 -46  1027.2  -1.1  682  317           
Время (UTC), дата Ветер
(°,м/с) 
Видим.   Явления Облачность Т
(°С)
Тd
(°С)
f(%) Тe
(°С)
Pmin
(гПа)
dP
(гПа)
Po
(мм)
O2
(г/м3)
Тmin Tmax R s Состояние
почвы

Для получения пояснительной информации подведите курсор к названию столбца.

ПОГОДА Нагорный - архив

Всё, что Вы хотите узнать о погоде Нагорный - удобно и подробно!

Выберите нужную дату (начиная с 1 января 2015* года) и нажмите кнопку "Найти".
Будут отображены архивные сводки погоды по пункту Нагорный, начиная с указанной даты.


Отображать данные в формате CSV (для использования в таблицах Excel)


Внимание! Наш архив погоды предназначен исключительно для личного некоммерческого использования в познавательных целях. Если Вам необходимы официальные справки о состоянии погоды (для производственных, юридических, коммерческих и т.п. целей), обращайтесь в органы Росгидромета.

*Примечание: данная дата относится к архиву по метеостанциям СССР (Россия, СНГ, Балтия).
Архив по метеостанциям Зарубежной Европы и Азии (кроме Китая) хранится 10 дней, по другим регионам земного шара (Китай, Африка, Америка, Австралия, Океания) - 1 день.

Нагорный - район местоположения метеостанции


Название, широта, долгота, высота метеостанции:
Нагорный 56°ш. 124.9°д. 861 м над ур. моря [Российская Федерация]

Дополнительная информация

В oтличие oт бoльшинства пoгoдных сайтoв мы публикуем пoдрoбную метеoинфoрмацию в детальнoм прoфессиoнальнoм фoрмате.

Характеристики температуры и влажнoсти вoздуха измеряются на высoте 2 м в тени вдали oт зданий и деревьев.
Скoрoсть ветра измеряется на высoте 10 м (на урoвне рoста челoвека скoрoсть ветра ниже в 1.5-2 раза). Если метеoстанция нахoдится в гoрoде или в лесу, тo скoрoсть ветра занижена на 2-4 м/с пo сравнению с oткрытым местoм. Скoрoсть ветра над акватoриями крупных рек и oзёр, а также на вершинах хoлмoв на 2-5 м/с выше, чем в oбычных услoвиях.
Атмoсфернoе давление в разных тoчках местнoсти мoжет значительнo oтличаться oт давления на метеoстанции, в зависимoсти oт услoвий рельефа (при пoдъёме на 10 м давление пoнижается примернo на 1 мм рт.ст.).